Stations météo

Publicité
Aurillac, France (7549): Température de l'air & dewpoint: 17.04.2017 23:00:00 - 23.04.2017 23:00:00 (CEST)Aurillac, France (7549): Température de l'air 5cm: 17.04.2017 23:00:00 - 23.04.2017 23:00:00 (CEST)Aurillac, France (7549): Température de l'air -20cm & Température de l'air -100cm: 17.04.2017 23:00:00 - 23.04.2017 23:00:00 (CEST)Aurillac, France (7549): Vitesse du vent & gusts: 17.04.2017 23:00:00 - 23.04.2017 23:00:00 (CEST)Aurillac, France (7549): Direction du vent: 17.04.2017 23:00:00 - 23.04.2017 23:00:00 (CEST)Aurillac, France (7549): reduced air pressure: 17.04.2017 23:00:00 - 23.04.2017 23:00:00 (CEST)Aurillac, France (7549): visibility: 17.04.2017 23:00:00 - 23.04.2017 23:00:00 (CEST)Aurillac, France (7549): Ensoleillement: 17.04.2017 23:00:00 - 23.04.2017 23:00:00 (CEST)Aurillac, France (7549): Quantités de précipitations: 17.04.2017 23:00:00 - 23.04.2017 23:00:00 (CEST)
Date & Time tt [°C] td [°C] tt 5cm [°C] tt -20cm [°C] tt -100cm [°C] ff [km/h] ff [knt] fx [km/h] fx [knt] dd ppp [hPa] vv [km] sd [min] rr [mm]
23.04.2017 23:00:00 11,9 2,3 9,6 13,1 10,7 14 7 23 13 SE 1017,6 60 0 0,0
23.04.2017 22:00:00 12,9 3,0 10,5 13,0 10,7 13 7 21 11 SE 1017,1 60 0 0,0
23.04.2017 21:00:00 14,2 3,0 12,0 12,8 10,7 13 7 20 11 ESE 1016,4 60 28 0,0
23.04.2017 20:00:00 16,9 4,2 15,7 12,6 10,7 12 6 20 11 E 1015,4 58 60 0,0
23.04.2017 19:00:00 18,7 5,2 20,3 12,4 10,7 14 8 21 11 ESE 1015,0 60 60 0,0
23.04.2017 18:00:00 19,8 3,0 - - - 4 2 21 11 ESE 1014,8 19 - 0,0
23.04.2017 17:00:00 20,8 2,6 29,3 12,1 10,7 6 3 13 7 SSE 1014,8 20 60 0,0
23.04.2017 16:00:00 19,6 1,1 27,1 12,0 10,7 7 4 16 9 N 1015,7 19 60 0,0
23.04.2017 15:00:00 19,1 2,4 28,2 11,9 10,6 4 2 16 9 NW 1016,3 19 60 0,0
23.04.2017 14:00:00 17,9 3,4 26,9 11,9 10,7 4 2 15 8 WSW 1016,9 19 60 0,0
23.04.2017 13:00:00 16,9 4,6 25,7 11,9 10,7 5 3 18 10 SE 1017,7 18 60 0,0
23.04.2017 12:00:00 15,7 3,8 - - - 9 5 24 13 ESE 1018,4 19 - 0,0
23.04.2017 11:00:00 14,9 5,7 - - - 15 8 22 12 SE 1018,6 19 - -
23.04.2017 10:00:00 13,1 4,0 15,6 12,2 10,7 14 8 21 11 ESE 1019,1 20 60 0,0
23.04.2017 09:00:00 9,9 3,2 6,9 12,3 10,7 5 3 11 6 E 1020,0 18 60 0,0
23.04.2017 08:00:00 5,4 1,3 -0,9 12,4 10,7 3 2 9 5 ENE 1021,2 36 50 0,0
23.04.2017 07:00:00 2,3 -0,1 -3,2 12,6 10,7 4 2 8 4 E 1022,0 34 0 0,0
23.04.2017 06:00:00 3,6 -0,2 - - - 2 1 9 5 ENE 1021,6 50 - 0,0
23.04.2017 05:00:00 3,7 0,2 -2,5 12,7 10,7 2 1 6 3 ENE 1021,6 57 0 0,0
23.04.2017 04:00:00 5,9 0,2 -2,0 12,8 10,7 7 4 11 6 NNE 1021,4 60 0 0,0
23.04.2017 03:00:00 6,4 0,5 0,7 12,8 10,7 0 0 8 4 N 1021,5 55 0 0,0
23.04.2017 02:00:00 9,2 0,6 - - - 5 3 11 6 E 1021,0 60 - -
23.04.2017 01:00:00 9,9 0,8 - - - 9 5 15 8 E 1020,9 60 - 0,0
23.04.2017 00:00:00 10,1 0,9 3,5 12,7 10,7 5 3 13 7 E 1021,1 60 0 0,0
22.04.2017 23:00:00 12,9 0,6 5,5 12,6 10,7 6 3 13 7 E 1020,2 60 0 0,0
22.04.2017 22:00:00 14,1 2,0 - - - 5 3 15 8 E 1019,6 60 - 0,0
22.04.2017 21:00:00 15,8 2,2 10,6 12,2 10,7 9 5 15 8 WNW 1018,6 60 32 0,0
22.04.2017 20:00:00 19,3 2,2 17,1 12,0 10,7 11 6 25 13 WNW 1017,4 60 60 0,0
22.04.2017 19:00:00 21,3 0,5 - - - 13 7 22 12 NNW 1017,2 60 - 0,0
22.04.2017 18:00:00 21,6 -1,0 26,7 11,6 10,7 10 5 23 12 NW 1017,4 58 60 0,0
22.04.2017 17:00:00 21,7 -0,4 27,3 11,5 10,7 13 7 26 14 WNW 1018,0 20 60 0,0
22.04.2017 16:00:00 21,1 0,3 - - - 9 5 22 12 WNW 1019,0 18 - 0,0
22.04.2017 15:00:00 20,3 3,9 28,5 11,3 10,7 6 4 16 9 W 1020,1 60 60 0,0
22.04.2017 14:00:00 18,8 0,8 27,7 11,2 10,7 7 4 16 8 NNW 1021,3 60 60 0,0
22.04.2017 13:00:00 17,8 -0,5 26,5 11,3 10,7 4 2 16 8 NW 1022,4 20 60 0,0
22.04.2017 12:00:00 16,4 -2,7 25,4 11,3 10,7 6 3 12 6 NW 1023,4 20 60 0,0
22.04.2017 11:00:00 15,9 -0,8 22,1 11,4 10,7 3 2 11 6 S 1023,9 20 60 0,0
22.04.2017 10:00:00 13,3 -2,3 14,6 11,5 10,7 8 4 13 7 E 1024,9 19 60 0,0
22.04.2017 09:00:00 8,5 -2,5 5,7 11,6 10,7 10 5 13 7 E 1026,3 22 60 0,0
22.04.2017 08:00:00 4,3 -4,0 -0,7 11,7 10,6 11 6 16 9 E 1027,5 15 50 0,0
22.04.2017 07:00:00 2,1 -4,9 - - - 11 6 21 11 E 1028,0 60 - 0,0
22.04.2017 06:00:00 2,8 -4,9 -0,5 11,9 10,6 11 6 16 9 E 1027,8 60 0 0,0
22.04.2017 05:00:00 3,9 -4,8 -1,3 12,0 10,7 11 6 14 8 E 1027,6 20 0 0,0
22.04.2017 04:00:00 3,2 -4,5 -1,0 12,0 10,7 9 5 16 8 E 1027,8 60 0 0,0
22.04.2017 03:00:00 5,2 -5,2 1,8 12,0 10,6 10 6 17 9 E 1027,6 60 0 0,0
22.04.2017 02:00:00 4,9 -4,7 - - - 8 4 15 8 E 1028,1 60 - -
22.04.2017 01:00:00 5,8 -4,4 1,8 12,0 10,7 11 6 13 7 E 1028,1 60 0 0,0
22.04.2017 00:00:00 7,8 -4,3 4,8 12,0 10,7 9 5 14 8 ESE 1027,7 60 0 0,0
21.04.2017 23:00:00 9,5 -4,5 - - - 9 5 13 7 E 1027,3 60 - -
21.04.2017 22:00:00 11,4 -5,2 6,3 11,7 10,7 9 5 11 6 E 1026,6 60 0 0,0
21.04.2017 21:00:00 14,0 -6,8 5,9 11,5 10,7 7 4 12 6 ESE 1025,5 60 32 0,0
21.04.2017 20:00:00 17,9 -8,3 14,8 11,3 10,7 0 0 9 5 N 1024,3 18 60 0,0
21.04.2017 19:00:00 17,3 -8,0 21,3 11,1 10,7 4 2 10 5 SSW 1024,5 60 60 0,0
21.04.2017 18:00:00 18,1 -9,0 23,3 10,9 10,7 5 3 16 9 NNW 1024,4 20 60 0,0
21.04.2017 17:00:00 17,9 -7,5 24,7 10,8 10,7 9 5 19 10 WNW 1024,7 48 60 0,0
21.04.2017 16:00:00 17,5 -6,4 26,6 10,7 10,7 6 3 19 10 NNW 1025,3 56 60 0,0
21.04.2017 15:00:00 16,9 -6,9 24,7 10,7 10,7 7 4 28 15 ESE 1025,8 20 60 0,0
21.04.2017 14:00:00 16,1 -7,6 22,8 10,6 10,7 9 5 23 13 E 1026,4 19 60 0,0
21.04.2017 13:00:00 14,7 -7,4 19,7 10,7 10,7 14 7 33 18 SE 1027,2 19 60 0,0
21.04.2017 12:00:00 13,4 -9,8 18,0 10,8 10,6 21 11 32 17 ESE 1027,6 20 60 0,0
21.04.2017 11:00:00 11,3 -8,1 14,8 10,9 10,7 15 8 26 14 SE 1028,3 20 60 0,0
21.04.2017 10:00:00 6,6 -4,8 11,2 11,0 10,6 7 4 14 7 NW 1029,5 20 60 0,0
21.04.2017 09:00:00 4,0 -5,5 2,3 11,1 10,7 2 1 7 4 W 1029,8 20 60 0,0
21.04.2017 08:00:00 0,5 -7,0 -7,1 11,3 10,6 4 2 8 4 E 1030,7 20 44 0,0
21.04.2017 07:00:00 -1,8 -9,0 -7,7 11,4 10,7 5 3 13 7 NNW 1031,1 60 0 0,0
21.04.2017 06:00:00 -1,2 -8,2 -7,3 11,5 10,6 8 5 11 6 ENE 1030,4 59 0 0,0
21.04.2017 05:00:00 -1,3 -7,9 -7,1 11,6 10,6 3 2 10 6 NW 1030,7 60 0 0,0
21.04.2017 04:00:00 -2,0 -7,3 -7,4 11,7 10,7 6 3 10 5 SE 1030,9 60 0 0,0
21.04.2017 03:00:00 0,2 -7,3 - - - 8 4 9 5 ENE 1030,8 60 - 0,0
21.04.2017 02:00:00 1,0 -7,0 -4,4 11,8 10,6 8 4 11 6 E 1031,1 60 0 0,0
21.04.2017 01:00:00 2,9 -7,9 -4,0 11,7 10,6 9 5 11 6 SSE 1030,8 60 0 0,0
21.04.2017 00:00:00 4,4 -8,7 0,3 11,7 10,6 7 4 24 13 ENE 1030,1 60 0 0,0
20.04.2017 23:00:00 5,4 -7,8 0,6 11,7 10,7 11 6 21 11 ENE 1029,8 60 0 0,0
20.04.2017 22:00:00 6,5 -7,5 3,5 11,5 10,6 10 5 36 20 E 1029,2 60 0 0,0
20.04.2017 21:00:00 8,0 -8,1 - - - 18 10 31 17 E 1027,9 60 - 0,0
20.04.2017 20:00:00 11,0 -7,8 9,8 11,2 10,6 8 5 29 16 ESE 1026,5 60 60 0,0
20.04.2017 19:00:00 13,5 -9,1 16,0 11,0 10,6 16 9 27 15 NW 1025,4 20 60 0,0
20.04.2017 18:00:00 14,9 -7,9 20,8 10,8 10,7 12 6 23 13 NW 1025,1 19 60 0,0
20.04.2017 17:00:00 14,8 -6,2 22,6 10,7 10,6 4 2 17 9 NNE 1025,3 55 60 0,0
20.04.2017 16:00:00 13,8 -8,2 21,0 10,6 10,6 4 2 24 13 WNW 1026,1 52 60 0,0
20.04.2017 15:00:00 13,3 -5,3 22,0 10,6 10,6 6 4 20 11 WSW 1026,7 60 60 0,0
20.04.2017 14:00:00 11,8 -6,2 19,7 10,6 10,7 9 5 18 10 NNW 1027,3 19 60 0,0
20.04.2017 13:00:00 10,0 -5,6 19,1 10,6 10,6 8 5 23 13 W 1028,3 17 60 0,0
20.04.2017 12:00:00 8,5 -4,7 15,8 10,7 10,6 10 6 21 11 NW 1028,9 20 60 0,0
20.04.2017 11:00:00 6,7 -5,0 13,7 10,9 10,6 8 4 16 9 NW 1029,4 18 60 0,0
20.04.2017 10:00:00 3,8 -4,4 9,1 11,0 10,7 5 3 11 6 NW 1030,2 19 60 0,0
20.04.2017 09:00:00 2,1 -4,6 - - - 2 1 8 4 ESE 1030,7 19 - 0,0
20.04.2017 08:00:00 -1,8 -6,0 -9,8 11,3 10,6 3 2 7 4 E 1031,4 19 43 0,0
20.04.2017 07:00:00 -3,8 -7,1 -10,5 11,4 10,6 3 2 8 5 E 1031,7 37 0 0,0
20.04.2017 06:00:00 -3,0 -7,0 -9,4 11,5 10,6 3 1 7 4 NE 1031,1 38 0 0,0
20.04.2017 05:00:00 -2,4 -7,1 -8,3 11,6 10,6 5 3 8 4 SE 1031,0 43 0 0,0
20.04.2017 04:00:00 -0,5 -7,3 -7,6 11,7 10,6 2 1 8 4 SSE 1030,2 54 0 0,0
20.04.2017 03:00:00 0,3 -7,5 -6,2 11,8 10,6 2 1 22 12 E 1030,3 54 0 0,0
20.04.2017 02:00:00 2,3 -7,6 -2,9 11,8 10,6 14 8 28 15 NE 1029,9 53 0 0,0
20.04.2017 01:00:00 2,7 -7,0 -0,9 11,9 10,6 8 4 28 15 NE 1029,7 57 0 0,0
20.04.2017 00:00:00 3,7 -6,9 -3,0 11,8 10,6 13 7 25 13 NE 1029,1 59 0 0,0
19.04.2017 23:00:00 4,1 -5,9 -0,3 11,8 10,6 5 3 21 11 NE 1028,9 60 0 0,0
19.04.2017 22:00:00 5,1 -6,5 2,1 11,7 10,6 9 5 32 17 NE 1028,4 60 0 0,0
19.04.2017 21:00:00 6,0 -6,6 3,6 11,6 10,6 16 9 36 20 NE 1027,4 60 30 0,0
19.04.2017 20:00:00 7,7 -6,1 6,9 11,5 10,6 18 10 36 19 NNE 1026,2 39 60 0,0
19.04.2017 19:00:00 9,5 -5,2 - - - 18 10 41 22 NNE 1025,2 40 - 0,0
19.04.2017 18:00:00 10,1 -5,9 14,6 11,2 10,6 23 12 43 23 NE 1024,8 46 60 0,0
19.04.2017 17:00:00 10,4 -7,8 16,3 11,1 10,6 23 13 38 20 NE 1024,7 19 60 0,0
19.04.2017 16:00:00 11,1 -7,7 17,9 11,0 10,6 20 11 41 22 NE 1024,7 19 60 0,0
19.04.2017 15:00:00 10,8 -9,5 17,2 11,0 10,6 21 11 41 22 N 1025,2 18 60 0,0
19.04.2017 14:00:00 10,9 -8,4 - - - 15 8 41 22 E 1025,2 18 - -
19.04.2017 13:00:00 10,4 -6,0 17,9 11,0 10,6 16 9 30 16 NNE 1025,6 19 60 0,0
19.04.2017 12:00:00 9,2 -7,5 - - - 9 5 22 12 ENE 1026,1 19 - 0,0
19.04.2017 11:00:00 7,6 -4,8 - - - 4 2 15 8 S 1026,5 19 - -
19.04.2017 10:00:00 4,7 -3,1 - - - 8 4 13 7 WNW 1027,1 45 - 0,0
19.04.2017 09:00:00 1,3 -2,1 0,9 11,5 10,6 5 3 11 6 W 1027,9 20 60 0,0
19.04.2017 08:00:00 -1,1 -3,8 -3,9 11,6 10,6 6 3 12 7 WNW 1028,3 49 41 0,0
19.04.2017 07:00:00 -1,1 -3,3 -7,1 11,8 10,6 11 6 14 7 NW 1028,0 56 0 0,0
19.04.2017 06:00:00 -1,4 -3,9 - - - 4 2 5 3 W 1027,9 60 - 0,0
19.04.2017 05:00:00 -1,2 -4,7 -6,0 12,0 10,6 3 2 10 5 NW 1027,7 57 0 0,0
19.04.2017 04:00:00 0,8 -4,1 -5,5 12,1 10,6 5 3 8 4 NW 1027,0 60 0 0,0
19.04.2017 03:00:00 0,7 -4,3 -4,5 12,2 10,6 0 0 8 4 N 1027,0 55 0 0,0
19.04.2017 02:00:00 1,8 -4,5 -3,0 12,2 10,6 4 2 13 7 SSE 1026,7 60 0 0,0
19.04.2017 01:00:00 3,2 -4,3 - - - 8 4 22 12 NNE 1026,2 10 - 0,0
19.04.2017 00:00:00 4,6 -4,2 -1,8 12,2 10,6 12 6 22 12 NE 1025,6 60 0 0,0
18.04.2017 23:00:00 4,6 -5,5 -1,1 12,2 10,6 5 3 29 16 NNE 1025,1 60 0 0,0
18.04.2017 22:00:00 6,2 -6,1 3,4 12,1 10,6 10 6 30 16 N 1024,2 60 0 0,0
18.04.2017 21:00:00 7,3 -6,8 4,4 12,0 10,6 17 9 33 18 NNE 1023,4 60 30 0,0
18.04.2017 20:00:00 8,9 -7,8 8,2 11,9 10,6 24 13 39 21 NNE 1022,3 49 60 0,0
18.04.2017 19:00:00 10,4 -6,9 13,2 11,8 10,6 19 11 39 21 NNE 1021,3 37 60 0,0
18.04.2017 18:00:00 11,3 -5,7 16,1 11,6 10,6 21 11 37 20 NNE 1020,7 20 60 0,0
18.04.2017 17:00:00 11,6 -3,8 17,0 11,5 10,6 18 10 37 20 N 1020,6 19 60 0,0
18.04.2017 16:00:00 11,6 -4,2 17,6 11,5 10,6 19 10 40 22 N 1020,8 50 60 0,0
18.04.2017 15:00:00 11,7 -4,5 17,6 11,4 10,6 21 11 46 25 N 1020,9 19 60 0,0
18.04.2017 14:00:00 11,5 -2,0 - - - 16 9 35 19 N 1020,9 17 - -
18.04.2017 13:00:00 10,7 -3,1 18,1 11,4 10,5 18 10 33 18 N 1021,2 20 60 0,0
18.04.2017 12:00:00 11,1 -2,0 19,1 11,5 10,6 11 6 24 13 NNE 1020,7 20 60 0,0
18.04.2017 11:00:00 10,2 -0,1 - - - 4 2 13 7 SSE 1020,7 18 - -
18.04.2017 10:00:00 8,0 2,7 12,1 11,7 10,6 3 1 6 4 W 1020,8 19 60 0,0
18.04.2017 09:00:00 4,9 2,6 2,3 11,8 10,6 2 1 5 3 SSE 1021,6 19 60 0,0
18.04.2017 08:00:00 1,9 0,9 -4,6 12,0 10,6 3 2 6 3 ESE 1022,2 13 38 0,0
18.04.2017 07:00:00 -0,1 -0,7 -4,9 12,1 10,6 5 3 7 4 E 1022,4 16 0 0,0
18.04.2017 06:00:00 0,8 0,2 -4,3 12,2 10,6 4 2 6 3 E 1021,9 16 0 0,0
18.04.2017 05:00:00 1,4 0,5 -4,1 12,2 10,5 0 0 4 2 N 1021,8 39 0 0,0
18.04.2017 04:00:00 2,1 0,9 - - - 0 0 8 4 N 1021,6 45 - 0,0
18.04.2017 03:00:00 2,8 1,3 -2,6 12,3 10,5 4 2 7 4 SE 1021,4 57 0 0,0
18.04.2017 02:00:00 4,5 2,0 -1,7 12,4 10,5 0 0 6 3 N 1021,0 55 0 0,0
18.04.2017 01:00:00 5,0 2,0 -0,7 12,4 10,6 4 2 9 5 SSW 1021,1 16 0 0,0
18.04.2017 00:00:00 6,7 2,4 0,4 12,3 10,5 3 1 6 3 W 1020,9 58 0 0,0
17.04.2017 23:00:00 8,5 3,1 4,0 12,2 10,5 3 1 20 11 ESE 1020,5 60 0 0,0

tt = Température de l'air
td = dewpoint
tt 5cm = Température de l'air 5cm
tt -20cm = Température de l'air -20cm
tt -100cm = Température de l'air -100cm
ff = Vitesse du vent
fx = gusts
dd = Direction du vent
ppp = reduced air pressure
vv = visibility
sd = Ensoleillement
rr = Quantités de précipitations

stations d'obs. à proximité